• în România
  • Lista ţărilor
  • Pe 7 zile
  • Temperatura apei
  • Hartă satelitară
  • Meteo pe hartă
  • Widget-uri
  • user-avatar
    Intrare

    Meteo pe oră la Kitzbuhel

    Astăzi, 22 Februarie, Miercuri

    Timp Temperatura Precipitaţii Vânt Presiune Umiditate
    00:00 +3°C° 0,5 mm 2 m/s 676 mmHg 96%
    01:00 +3°C° 0,5 mm 2 m/s 676 mmHg 96%
    02:00 +3°C° 0,4 mm 2 m/s 675 mmHg 96%
    03:00 +3°C° 0,4 mm 2 m/s 675 mmHg 96%
    04:00 +2°C° 0,4 mm 2 m/s 675 mmHg 96%
    05:00 +2°C° 0,2 mm 2 m/s 675 mmHg 95%
    06:00 +2°C° 0,2 mm 2 m/s 674 mmHg 94%
    07:00 +1°C° 0,2 mm 2 m/s 674 mmHg 93%
    08:00 +3°C° 0,1 mm 2 m/s 674 mmHg 94%
    09:00 +4°C° 0,1 mm 2 m/s 674 mmHg 94%
    10:00 +5°C° 0,1 mm 2 m/s 675 mmHg 95%
    11:00 +6°C° 0 mm 2 m/s 674 mmHg 94%
    12:00 +6°C° 0 mm 2 m/s 674 mmHg 94%
    13:00 +7°C° 0 mm 2 m/s 674 mmHg 93%
    14:00 +7°C° 0 mm 2 m/s 674 mmHg 93%
    15:00 +6°C° 0 mm 2 m/s 674 mmHg 94%
    16:00 +6°C° 0 mm 2 m/s 674 mmHg 94%
    17:00 +5°C° 0 mm 2 m/s 674 mmHg 94%
    18:00 +4°C° 0 mm 2 m/s 673 mmHg 94%
    19:00 +3°C° 0 mm 2 m/s 673 mmHg 93%
    20:00 +2°C° 0 mm 2 m/s 673 mmHg 92%
    21:00 +1°C° 0 mm 2 m/s 673 mmHg 91%
    22:00 +1°C° 0 mm 2 m/s 673 mmHg 90%
    23:00 +1°C° 0 mm 2 m/s 673 mmHg 89%

    Mâine, 23 Februarie, Joi

    Timp Temperatura Precipitaţii Vânt Presiune Umiditate
    00:00 -1°C° 0 mm 2 m/s 673 mmHg 88%
    01:00 -1°C° 0 mm 2 m/s 673 mmHg 87%
    02:00 -1°C° 0 mm 2 m/s 673 mmHg 85%
    03:00 -1°C° 0 mm 2 m/s 672 mmHg 84%
    04:00 -1°C° 0 mm 2 m/s 672 mmHg 83%
    05:00 -1°C° 0 mm 2 m/s 672 mmHg 82%
    06:00 -1°C° 0 mm 2 m/s 672 mmHg 80%
    07:00 -1°C° 0 mm 2 m/s 672 mmHg 79%
    08:00 +2°C° 0 mm 2 m/s 672 mmHg 80%
    09:00 +4°C° 0 mm 2 m/s 672 mmHg 81%
    10:00 +6°C° 0 mm 2 m/s 672 mmHg 82%
    11:00 +7°C° 0 mm 2 m/s 672 mmHg 82%
    12:00 +7°C° 0 mm 2 m/s 671 mmHg 82%
    13:00 +8°C° 0 mm 2 m/s 671 mmHg 82%
    14:00 +8°C° 0 mm 2 m/s 670 mmHg 84%
    15:00 +8°C° 0 mm 2 m/s 670 mmHg 86%
    16:00 +7°C° 0 mm 2 m/s 669 mmHg 88%
    17:00 +5°C° 0 mm 3 m/s 669 mmHg 88%
    18:00 +4°C° 0 mm 3 m/s 669 mmHg 89%
    19:00 +2°C° 0 mm 3 m/s 669 mmHg 90%
    20:00 +2°C° 0 mm 3 m/s 669 mmHg 90%
    21:00 +2°C° 0 mm 3 m/s 669 mmHg 90%
    22:00 +1°C° 0 mm 3 m/s 668 mmHg 90%
    23:00 +1°C° 0 mm 3 m/s 668 mmHg 89%

    Poimâine, 24 Februarie, Vineri

    Timp Temperatura Precipitaţii Vânt Presiune Umiditate
    00:00 +1°C° 0 mm 3 m/s 668 mmHg 89%
    01:00 +1°C° 0 mm 3 m/s 668 mmHg 89%
    02:00 +1°C° 0,3 mm 3 m/s 668 mmHg 90%
    03:00 +2°C° 0,3 mm 2 m/s 668 mmHg 92%
    04:00 +2°C° 0,3 mm 2 m/s 668 mmHg 93%
    05:00 +1°C° 0,8 mm 2 m/s 668 mmHg 94%
    06:00 +1°C° 0,8 mm 2 m/s 669 mmHg 95%
    07:00 +1°C° 0,8 mm 2 m/s 669 mmHg 96%
    08:00 +1°C° 0,7 mm 2 m/s 670 mmHg 95%
    09:00 0°C° 0,7 mm 3 m/s 670 mmHg 95%
    10:00 0°C° 0,7 mm 3 m/s 671 mmHg 94%
    11:00 0°C° 0,5 mm 3 m/s 671 mmHg 93%
    12:00 +2°C° 0,5 mm 2 m/s 671 mmHg 93%
    13:00 +2°C° 0,5 mm 2 m/s 671 mmHg 92%
    14:00 +1°C° 0,3 mm 2 m/s 671 mmHg 92%
    15:00 +1°C° 0,3 mm 2 m/s 671 mmHg 92%
    16:00 +1°C° 0,3 mm 2 m/s 671 mmHg 92%
    17:00 -1°C° 0,3 mm 2 m/s 671 mmHg 93%
    18:00 -1°C° 0,3 mm 2 m/s 672 mmHg 95%
    19:00 -2°C° 0,3 mm 2 m/s 673 mmHg 96%
    20:00 -2°C° 0,4 mm 2 m/s 673 mmHg 96%
    21:00 -2°C° 0,4 mm 2 m/s 674 mmHg 96%
    22:00 -3°C° 0,4 mm 2 m/s 675 mmHg 96%
    23:00 -3°C° 0,3 mm 2 m/s 675 mmHg 96%

    25 Februarie, Sâmbătă

    Timp Temperatura Precipitaţii Vânt Presiune Umiditate
    00:00 -3°C° 0,3 mm 2 m/s 675 mmHg 96%
    01:00 -3°C° 0,3 mm 2 m/s 676 mmHg 97%
    02:00 -4°C° 0,2 mm 2 m/s 676 mmHg 96%
    03:00 -4°C° 0,2 mm 2 m/s 676 mmHg 96%
    04:00 -4°C° 0,2 mm 2 m/s 677 mmHg 96%
    05:00 -5°C° 0,1 mm 2 m/s 677 mmHg 96%
    06:00 -5°C° 0,1 mm 2 m/s 677 mmHg 96%
    07:00 -6°C° 0,1 mm 2 m/s 677 mmHg 96%
    08:00 -2°C° 0 mm 1 m/s 678 mmHg 93%
    09:00 -1°C° 0 mm 1 m/s 678 mmHg 90%
    10:00 +1°C° 0 mm 1 m/s 679 mmHg 88%
    11:00 +2°C° 0 mm 1 m/s 679 mmHg 86%
    12:00 +3°C° 0 mm 1 m/s 679 mmHg 84%
    13:00 +3°C° 0 mm 0 m/s 679 mmHg 81%
    14:00 +3°C° 0 mm 0 m/s 678 mmHg 84%
    15:00 +3°C° 0 mm 0 m/s 678 mmHg 86%
    16:00 +3°C° 0 mm 0 m/s 678 mmHg 88%
    17:00 +2°C° 0 mm 1 m/s 677 mmHg 88%
    18:00 0°C° 0 mm 1 m/s 677 mmHg 88%
    19:00 -3°C° 0 mm 1 m/s 676 mmHg 88%
    20:00 -2°C° 0 mm 1 m/s 677 mmHg 84%
    21:00 -1°C° 0 mm 1 m/s 677 mmHg 81%
    22:00 -3°C° 0 mm 2 m/s 677 mmHg 78%
    23:00 -3°C° 0 mm 2 m/s 677 mmHg 77%

    26 Februarie, Duminică

    Timp Temperatura Precipitaţii Vânt Presiune Umiditate
    00:00 -2°C° 0 mm 2 m/s 677 mmHg 77%
    01:00 -2°C° 0 mm 2 m/s 677 mmHg 77%
    02:00 -2°C° 0 mm 2 m/s 677 mmHg 77%
    03:00 -2°C° 0 mm 2 m/s 676 mmHg 77%
    04:00 -2°C° 0 mm 2 m/s 676 mmHg 77%
    05:00 -1°C° 0 mm 2 m/s 676 mmHg 75%
    06:00 -1°C° 0 mm 2 m/s 677 mmHg 74%
    07:00 +1°C° 0 mm 2 m/s 677 mmHg 72%
    08:00 +3°C° 0 mm 1 m/s 677 mmHg 76%
    09:00 +5°C° 0 mm 1 m/s 678 mmHg 80%
    10:00 +7°C° 0 mm 1 m/s 679 mmHg 84%
    11:00 +7°C° 0 mm 1 m/s 678 mmHg 83%
    12:00 +8°C° 0 mm 1 m/s 678 mmHg 82%
    13:00 +8°C° 0 mm 1 m/s 678 mmHg 81%
    14:00 +8°C° 0 mm 1 m/s 678 mmHg 84%
    15:00 +8°C° 0 mm 1 m/s 678 mmHg 87%
    16:00 +7°C° 0 mm 0 m/s 678 mmHg 89%
    17:00 +4°C° 0 mm 0 m/s 677 mmHg 90%
    18:00 +1°C° 0 mm 0 m/s 676 mmHg 90%
    19:00 -1°C° 0 mm 1 m/s 676 mmHg 90%
    20:00 -1°C° 0 mm 1 m/s 676 mmHg 87%
    21:00 0°C° 0 mm 1 m/s 676 mmHg 84%
    22:00 +1°C° 0 mm 1 m/s 676 mmHg 81%
    23:00 +1°C° 0 mm 1 m/s 676 mmHg 82%

    27 Februarie, Luni

    Timp Temperatura Precipitaţii Vânt Presiune Umiditate
    00:00 +1°C° 0 mm 2 m/s 676 mmHg 83%
    01:00 +1°C° 0 mm 2 m/s 676 mmHg 83%
    02:00 +1°C° 0 mm 2 m/s 676 mmHg 83%
    03:00 +1°C° 0 mm 2 m/s 676 mmHg 83%
    04:00 +1°C° 0 mm 2 m/s 676 mmHg 84%
    05:00 +1°C° 0 mm 2 m/s 676 mmHg 83%
    06:00 +1°C° 0 mm 2 m/s 676 mmHg 83%
    07:00 -1°C° 0 mm 2 m/s 676 mmHg 83%
    08:00 +2°C° 0 mm 2 m/s 676 mmHg 82%
    09:00 +4°C° 0 mm 2 m/s 676 mmHg 82%
    10:00 +6°C° 0 mm 2 m/s 677 mmHg 81%
    11:00 +7°C° 0 mm 2 m/s 676 mmHg 81%
    12:00 +8°C° 0 mm 2 m/s 676 mmHg 80%
    13:00 +9°C° 0 mm 2 m/s 676 mmHg 80%
    14:00 +9°C° 0 mm 2 m/s 675 mmHg 82%
    15:00 +8°C° 0 mm 2 m/s 675 mmHg 84%
    16:00 +8°C° 0 mm 2 m/s 674 mmHg 87%
    17:00 +6°C° 0 mm 2 m/s 674 mmHg 88%
    18:00 +5°C° 0 mm 2 m/s 674 mmHg 89%
    19:00 +3°C° 0 mm 2 m/s 674 mmHg 91%
    20:00 +2°C° 0 mm 3 m/s 674 mmHg 90%
    21:00 +1°C° 0 mm 3 m/s 674 mmHg 89%
    22:00 +1°C° 0 mm 3 m/s 674 mmHg 89%
    23:00 +1°C° 0 mm 3 m/s 673 mmHg 88%
    Arată mai mult